Regional Weather Roundup
Issued by NWS

Home | Current Version | Previous Version | Graphics & Text | Print | Product List | Glossary On
Versions: 1 2 3 4 5 6 7 8 9 10 11 12 13 14 15 16 17 18 19 20 21 22 23 24 25 26 27 28 29 30 31 32 33 34 35 36 37 38 39 40 41 42 43 44 45 46 47 48 49 50
000
ASUS43 KLSX 230107
RWRMO

WEATHER SUMMARY FOR MISSOURI
NATIONAL WEATHER SERVICE SPRINGFIELD MO
800 PM CDT TUE JUL 22 2014

NOTE: "FAIR" INDICATES FEW OR NO CLOUDS BELOW 12,000 FEET WITH NO
       SIGNIFICANT WEATHER AND/OR OBSTRUCTIONS TO VISIBILITY.
       CURRENT SKY AND/OR WEATHER CONDITIONS ARE NOT AVAILABLE FOR
       CHILLICOTHE AND FARMINGTON.

MOZ001>031-035>038-043-044-053-054-230200-
...NORTHERN AND WESTERN MISSOURI...

CITY           SKY/WX    TMP DP  RH WIND       PRES   REMARKS
KANSAS CTY INT PTCLDY    90  79  70 N8        30.02R HX 106
KANSAS C DTWN  PTCLDY    95  74  50 N7        29.99R HX 105
LEE`S SUMMIT   PTCLDY    92  74  55 N5        30.02R HX 101
ST JOSEPH      CLEAR     89  81  77 N3        30.02R HX 108
CHILLICOTHE      N/A     91  79  67 CALM      30.01S HX 107
KIRKSVILLE     MOCLDY    88  80  77 CALM      30.02S THUNDER HX 104

$$
MOZ066>068-077>081-088>096-101>105-230200-
...SOUTHWEST MISSOURI...

CITY           SKY/WX    TMP DP  RH WIND       PRES   REMARKS
SPRINGFIELD    CLEAR     87  77  72 SW6       30.04S HX  99
JOPLIN         CLEAR     90  74  59 SW7       30.04R HX  99

$$
MOZ032>034-039>042-045>050-055>058-069>072-230200-
...CENTRAL MISSOURI...

CITY           SKY/WX    TMP DP  RH WIND       PRES   REMARKS
COLUMBIA       PTCLDY    90  78  68 NW6       30.02R HX 104
JEFFERSON CITY PTCLDY    91  77  63 CALM      29.99R HX 104
ROLLA          CLEAR     85  74  69 SW5       30.03R HX  92
SEDALIA        CLEAR     89  77  67 W5        30.02R HAZE    HX 101
WHITEMAN AFB   CLEAR     89  76  65 SW5       30.00S HX  99
OSAGE BEACH    PTCLDY    90  75  62 SW3       30.01S HX 100

$$
MOZ051-052-059>065-230200-
...EAST CENTRAL MISSOURI...

CITY           SKY/WX    TMP DP  RH WIND       PRES   REMARKS
ST LOUIS INTL  MOCLDY    89  72  56 S6        30.02R HX  96
SPIRIT OF STL  MOCLDY    86  74  67 SE5       30.00R HX  94
ST CHARLES     PTCLDY    85  76  74 NE6       30.00R HX  94

$$
MOZ072>076-082>087-097>100-106>115-230200-
...SOUTH CENTRAL AND SOUTHEAST MISSOURI...

CITY           SKY/WX    TMP DP  RH WIND       PRES   REMARKS
CAPE GIRARDEAU CLEAR     80  72  76 W5        30.03S
FARMINGTON     PTCLDY    81  70  69 S5        30.07S
POPLAR BLUFF   PTCLDY    81  68  64 CALM      30.03S
WEST PLAINS    CLEAR     83  71  67 S3        30.08S

$$


USA.gov is the U.S. government's official web portal to all federal, state and local government web resources and services.